sat.trackr.live / text

‹ back to catalog

STARLINK-35889

NORAD 67189 · 2025-303AC

PAYLOAD ACTIVE UNKNOWN

§ Identity

Operator
Country
US
Launch date
2025-12-17
Launch site
AFETR
Launch vehicle
Mass (kg)
RCS (m²)

Purposes: comms

External: N2YO · Heavens-Above · Gunter

§ Orbital elements

Epoch: 2026-05-24T22:44:16.027872Z

Period
94.27 min
Inclination
42.9992°
Eccentricity
0.0001279
Mean motion
15.27588875 rev/d
Perigee alt
482.1 km
Apogee alt
483.9 km
Semi-major
6,861.2 km
B*
7.3993e-4
RAAN
240.4038°
Arg perigee
273.4865°
Mean anomaly
86.5840°
Rev number
2,439

§ Raw data

STARLINK-358891 67189U 25303AC  26144.94740773  .00020160  00000+0  73993-3 0  99942 67189  42.9992 240.4038 0001279 273.4865  86.5840 15.27588875 24398

JSON: /api/v1/satellites/67189 · /tle

For live sub-satellite position, see the globe view (requires WebGL).

§ Visibility from observer

Set your observer location to see the next 7 days of passes ≥ 10°. The values pass through the URL so the page stays shareable.

No JS? Fill the form by hand. The geolocation button needs JavaScript.